START_TIME,STEP,MOV.,AL01,t_acc.,AL02,t_acc.,E37,t_acc.,H21,t_acc.
1979-07-20 18:00:34.060 ,1,1,1.,24.0,0.,24.0,0.,24.0,0.,24.0
1979-07-20 18:00:58.060 ,2,1,2.,24.0,0.,24.0,1.,24.0,0.,24.0
1979-07-20 18:01:22.060 ,6,1,0.,24.0,0.,24.0,0.,24.0,0.,24.0
1979-07-20 18:01:46.060 ,5,1,17.,24.0,0.,24.0,2.,24.0,0.,24.0
1979-07-20 18:02:10.060 ,1,1,0.,24.0,0.,24.0,1.,24.0,0.,24.0
1979-07-20 18:02:34.060 ,2,1,1.,24.0,1.,24.0,2.,24.0,0.,24.0
1979-07-20 18:02:58.060 ,6,1,0.,24.0,0.,24.0,2.,24.0,0.,24.0
1979-07-20 18:03:22.060 ,5,1,20.,24.0,0.,24.0,0.,24.0,0.,24.0
1979-07-20 18:03:46.060 ,1,1,2.,24.0,0.,24.0,1.,24.0,0.,24.0
1979-07-20 18:04:10.060 ,2,1,0.,24.0,0.,24.0,0.,24.0,0.,24.0
1979-07-20 18:04:34.060 ,6,1,0.,24.0,0.,24.0,1.,24.0,0.,24.0
1979-07-20 18:04:58.060 ,5,1,13.,24.0,0.,24.0,3.,24.0,0.,24.0
1979-07-20 18:05:22.060 ,1,1,2.,24.0,0.,24.0,2.,24.0,0.,24.0
1979-07-20 18:05:46.060 ,0,0,0.,24.0,0.,24.0,2.,24.0,0.,24.0
1979-07-20 18:06:10.060 ,0,0,0.,24.0,0.,24.0,2.,24.0,0.,24.0
1979-07-20 18:06:34.060 ,5,1,17.,24.0,0.,24.0,3.,24.0,0.,24.0
1979-07-20 18:06:58.060 ,5,0,1.,24.0,0.,24.0,0.,24.0,0.,24.0
1979-07-20 18:07:22.060 ,0,0,,0,,0,,0,,0
1979-07-20 18:07:46.060 ,0,0,,0,,0,,0,,0
1979-07-20 18:08:43.060 ,0,0,3.,24.0,1.,24.0,0.,24.0,0.,24.0
1979-07-20 18:08:58.060 ,2,1,0.,24.0,0.,24.0,0.,24.0,0.,24.0
1979-07-20 18:09:22.060 ,2,0,0.,24.0,0.,24.0,2.,24.0,0.,24.0
1979-07-20 18:09:46.060 ,1,1,0.,24.0,0.,24.0,0.,24.0,0.,24.0
1979-07-20 18:10:10.060 ,1,0,1.,24.0,1.,24.0,2.,24.0,0.,24.0
1979-07-20 18:10:34.060 ,0,1,0.,24.0,0.,24.0,3.,24.0,0.,24.0
1979-07-20 18:10:58.060 ,0,0,0.,24.0,0.,24.0,1.,24.0,0.,24.0
1979-07-20 18:11:22.060 ,0,1,0.,24.0,0.,24.0,1.,24.0,0.,24.0
1979-07-20 18:11:46.060 ,0,0,0.,24.0,1.,24.0,1.,24.0,0.,24.0
1979-07-20 18:12:10.060 ,1,1,1.,24.0,0.,24.0,0.,24.0,0.,24.0
1979-07-20 18:12:34.060 ,1,0,1.,24.0,0.,24.0,3.,24.0,0.,24.0
1979-07-20 18:12:58.060 ,2,1,1.,24.0,0.,24.0,1.,24.0,0.,24.0
1979-07-20 18:13:22.060 ,2,0,0.,24.0,0.,24.0,1.,24.0,0.,24.0
1979-07-20 18:13:46.060 ,3,1,0.,24.0,0.,24.0,4.,24.0,0.,24.0
1979-07-20 18:14:10.060 ,3,0,0.,24.0,1.,24.0,1.,24.0,0.,24.0
1979-07-20 18:14:34.060 ,4,1,1.,24.0,0.,24.0,2.,24.0,0.,24.0
1979-07-20 18:14:58.060 ,4,0,2.,24.0,0.,24.0,1.,24.0,0.,24.0
1979-07-20 18:15:22.060 ,5,1,0.,24.0,0.,24.0,0.,24.0,0.,24.0
1979-07-20 18:15:46.060 ,5,0,0.,24.0,0.,24.0,2.,24.0,0.,24.0
1979-07-20 18:16:10.060 ,6,1,0.,24.0,0.,24.0,0.,24.0,0.,24.0
1979-07-20 18:16:34.060 ,6,0,0.,24.0,0.,24.0,0.,24.0,0.,24.0
1979-07-20 18:16:58.060 ,7,1,4.,24.0,0.,24.0,0.,24.0,0.,24.0
1979-07-20 18:17:22.060 ,7,0,31.,24.0,0.,24.0,3.,24.0,0.,24.0
1979-07-20 18:17:46.060 ,7,1,21.,24.0,0.,24.0,0.,24.0,0.,24.0
1979-07-20 18:18:10.060 ,7,0,33.,24.0,0.,24.0,1.,24.0,0.,24.0
1979-07-20 18:18:34.060 ,6,1,30.,24.0,0.,24.0,0.,24.0,0.,24.0
1979-07-20 18:18:58.060 ,6,0,0.,24.0,0.,24.0,0.,24.0,0.,24.0
1979-07-20 18:19:22.060 ,5,1,0.,24.0,0.,24.0,1.,24.0,0.,24.0
1979-07-20 18:19:46.060 ,5,0,0.,24.0,0.,24.0,0.,24.0,0.,24.0
1979-07-20 18:20:10.060 ,4,1,0.,24.0,0.,24.0,0.,24.0,0.,24.0
1979-07-20 18:20:34.060 ,4,0,2.,24.0,0.,24.0,0.,24.0,0.,24.0
1979-07-20 18:20:58.060 ,3,1,0.,24.0,0.,24.0,0.,24.0,0.,24.0
1979-07-20 18:21:22.060 ,3,0,1.,24.0,1.,24.0,2.,24.0,0.,24.0
1979-07-20 18:21:46.060 ,2,1,0.,24.0,0.,24.0,1.,24.0,0.,24.0
1979-07-20 18:22:10.060 ,2,0,1.,24.0,0.,24.0,0.,24.0,0.,24.0
1979-07-20 18:22:34.060 ,1,1,0.,24.0,0.,24.0,2.,24.0,0.,24.0
1979-07-20 18:22:58.060 ,1,0,0.,24.0,0.,24.0,0.,24.0,0.,24.0
1979-07-20 18:23:22.060 ,0,1,0.,24.0,0.,24.0,0.,24.0,0.,24.0
1979-07-20 18:23:46.060 ,0,0,0.,24.0,0.,24.0,0.,24.0,0.,24.0
1979-07-20 18:24:10.060 ,0,1,1.,24.0,0.,24.0,1.,24.0,0.,24.0
1979-07-20 18:24:34.060 ,0,0,0.,24.0,0.,24.0,1.,24.0,0.,24.0
1979-07-20 18:24:58.060 ,1,1,0.,24.0,0.,24.0,3.,24.0,0.,24.0
1979-07-20 18:25:22.060 ,1,0,0.,24.0,0.,24.0,0.,24.0,0.,24.0
1979-07-20 18:25:46.060 ,2,1,0.,24.0,1.,24.0,1.,24.0,0.,24.0
1979-07-20 18:26:10.060 ,2,0,0.,24.0,0.,24.0,0.,24.0,0.,24.0
1979-07-20 18:26:34.060 ,3,1,0.,24.0,0.,24.0,1.,24.0,0.,24.0
1979-07-20 18:26:58.060 ,3,0,0.,24.0,0.,24.0,1.,24.0,0.,24.0
1979-07-20 18:27:22.060 ,4,1,0.,24.0,0.,24.0,1.,24.0,0.,24.0
1979-07-20 18:27:46.060 ,4,0,0.,24.0,0.,24.0,0.,24.0,0.,24.0
1979-07-20 18:28:10.060 ,5,1,0.,24.0,0.,24.0,1.,24.0,0.,24.0
1979-07-20 18:28:34.060 ,5,0,0.,24.0,0.,24.0,2.,24.0,0.,24.0
1979-07-20 18:28:58.060 ,6,1,0.,24.0,0.,24.0,0.,24.0,0.,24.0
1979-07-20 18:29:22.060 ,6,0,1.,24.0,1.,24.0,0.,24.0,0.,24.0
1979-07-20 18:29:46.060 ,7,1,8.,24.0,0.,24.0,1.,24.0,0.,24.0
1979-07-20 18:30:10.060 ,7,0,31.,24.0,0.,24.0,1.,24.0,0.,24.0
1979-07-20 18:31:22.060 ,0,0,24.,24.0,0.,24.0,1.,24.0,0.,24.0
1979-07-20 18:31:46.060 ,0,0,0.,24.0,0.,24.0,0.,24.0,0.,24.0
1979-07-20 18:32:10.060 ,5,1,0.,24.0,0.,24.0,0.,24.0,0.,24.0
1979-07-20 18:32:34.060 ,5,0,0.,24.0,0.,24.0,1.,24.0,0.,24.0
1979-07-20 18:32:58.060 ,4,1,0.,24.0,0.,24.0,0.,24.0,0.,24.0
1979-07-20 18:33:22.060 ,4,0,1.,24.0,0.,24.0,2.,24.0,0.,24.0
1979-07-20 18:33:46.060 ,3,1,1.,24.0,0.,24.0,3.,24.0,0.,24.0
1979-07-20 18:34:10.050 ,3,0,0.,24.0,0.,24.0,0.,24.0,0.,24.0
1979-07-20 18:34:34.050 ,2,1,0.,24.0,1.,24.0,0.,24.0,0.,24.0
1979-07-20 18:34:58.050 ,2,0,0.,24.0,0.,24.0,1.,24.0,0.,24.0
1979-07-20 18:35:22.050 ,1,1,2.,24.0,0.,24.0,3.,24.0,0.,24.0
1979-07-20 18:35:46.050 ,1,0,0.,24.0,0.,24.0,1.,24.0,0.,24.0
1979-07-20 18:36:10.050 ,0,1,0.,24.0,1.,24.0,2.,24.0,0.,24.0
1979-07-20 18:36:34.050 ,0,0,1.,24.0,1.,24.0,2.,24.0,0.,24.0
1979-07-20 18:36:58.050 ,0,1,0.,24.0,0.,24.0,0.,24.0,0.,24.0
1979-07-20 18:37:22.050 ,0,0,0.,24.0,0.,24.0,1.,24.0,0.,24.0
1979-07-20 18:37:46.050 ,1,1,0.,24.0,0.,24.0,4.,24.0,0.,24.0
1979-07-20 18:38:10.050 ,1,0,0.,24.0,0.,24.0,2.,24.0,0.,24.0
1979-07-20 18:38:34.050 ,2,1,0.,24.0,0.,24.0,4.,24.0,0.,24.0
1979-07-20 18:38:58.050 ,2,0,1.,24.0,0.,24.0,4.,24.0,0.,24.0
1979-07-20 18:39:22.050 ,3,1,1.,24.0,1.,24.0,2.,24.0,0.,24.0
1979-07-20 18:39:46.050 ,3,0,2.,24.0,0.,24.0,1.,24.0,0.,24.0
1979-07-20 18:40:10.050 ,4,1,0.,24.0,0.,24.0,2.,24.0,0.,24.0
1979-07-20 18:40:34.050 ,4,0,0.,24.0,0.,24.0,1.,24.0,0.,24.0
1979-07-20 18:40:58.050 ,5,1,0.,24.0,0.,24.0,2.,24.0,0.,24.0
1979-07-20 18:41:22.050 ,5,0,0.,24.0,0.,24.0,1.,24.0,0.,24.0
1979-07-20 18:41:46.050 ,6,1,1.,24.0,0.,24.0,2.,24.0,0.,24.0
1979-07-20 18:42:10.050 ,6,0,0.,24.0,0.,24.0,0.,24.0,0.,24.0
1979-07-20 18:42:34.050 ,7,0,5.,24.0,0.,24.0,3.,24.0,0.,24.0
1979-07-20 18:42:58.050 ,7,0,33.,24.0,0.,24.0,1.,24.0,0.,24.0
1979-07-20 18:43:22.050 ,5,1,17.,24.0,0.,24.0,0.,24.0,0.,24.0
1979-07-20 18:43:46.050 ,1,1,1.,24.0,0.,24.0,2.,24.0,0.,24.0
1979-07-20 18:44:10.050 ,2,1,0.,24.0,0.,24.0,6.,24.0,0.,24.0
1979-07-20 18:44:34.050 ,6,1,1.,24.0,0.,24.0,2.,24.0,0.,24.0
1979-07-20 18:44:58.050 ,5,1,12.,24.0,0.,24.0,1.,24.0,0.,24.0
1979-07-20 18:45:22.050 ,1,1,0.,24.0,0.,24.0,1.,24.0,0.,24.0
1979-07-20 18:45:46.050 ,2,1,1.,24.0,1.,24.0,3.,24.0,0.,24.0
1979-07-20 18:46:10.050 ,6,1,0.,24.0,0.,24.0,2.,24.0,0.,24.0
1979-07-20 18:46:34.050 ,5,1,17.,24.0,0.,24.0,4.,24.0,0.,24.0
1979-07-20 18:46:58.050 ,1,1,0.,24.0,0.,24.0,2.,24.0,0.,24.0
1979-07-20 18:47:22.050 ,2,1,0.,24.0,0.,24.0,3.,24.0,0.,24.0
1979-07-20 18:47:46.050 ,6,1,0.,24.0,0.,24.0,3.,24.0,0.,24.0
1979-07-20 18:48:10.050 ,5,1,19.,24.0,0.,24.0,3.,24.0,0.,24.0
1979-07-20 18:48:34.050 ,1,1,1.,24.0,0.,24.0,0.,24.0,0.,24.0
1979-07-20 18:48:58.050 ,2,1,1.,24.0,0.,24.0,4.,24.0,0.,24.0
1979-07-20 18:49:22.050 ,6,1,1.,24.0,0.,24.0,4.,24.0,0.,24.0
1979-07-20 18:49:46.050 ,5,1,15.,24.0,0.,24.0,5.,24.0,0.,24.0
1979-07-20 18:50:10.050 ,1,1,0.,24.0,0.,24.0,1.,24.0,0.,24.0
1979-07-20 18:50:34.050 ,2,1,0.,24.0,0.,24.0,0.,24.0,0.,24.0
1979-07-20 18:50:58.050 ,6,1,1.,24.0,2.,24.0,4.,24.0,0.,24.0
1979-07-20 18:52:10.050 ,0,0,0.,24.0,0.,24.0,2.,24.0,0.,24.0
1979-07-20 18:52:34.050 ,6,1,2.,24.0,0.,24.0,3.,24.0,0.,24.0
1979-07-20 18:52:58.050 ,5,1,15.,24.0,0.,24.0,6.,24.0,0.,24.0
1979-07-20 18:53:22.050 ,1,1,0.,24.0,0.,24.0,4.,24.0,0.,24.0
1979-07-20 18:53:46.050 ,0,0,1.,24.0,0.,24.0,2.,24.0,0.,24.0
1979-07-20 18:54:10.050 ,0,0,0.,24.0,0.,24.0,2.,24.0,0.,24.0
1979-07-20 18:54:34.050 ,5,1,22.,24.0,0.,24.0,2.,24.0,0.,24.0
1979-07-20 18:54:58.050 ,5,0,0.,24.0,0.,24.0,3.,24.0,0.,24.0
1979-07-20 18:55:22.050 ,4,1,1.,24.0,0.,24.0,3.,24.0,0.,24.0
1979-07-20 18:55:46.050 ,4,0,0.,24.0,0.,24.0,3.,24.0,0.,24.0
1979-07-20 18:56:10.050 ,3,1,1.,24.0,0.,24.0,2.,24.0,0.,24.0
1979-07-20 18:56:34.050 ,3,0,0.,24.0,2.,24.0,1.,24.0,0.,24.0
1979-07-20 18:56:58.050 ,2,1,0.,24.0,0.,24.0,6.,24.0,0.,24.0
1979-07-20 18:57:22.050 ,2,0,0.,24.0,0.,24.0,2.,24.0,0.,24.0
1979-07-20 18:57:46.050 ,1,1,0.,24.0,0.,24.0,2.,24.0,0.,24.0
1979-07-20 18:58:10.050 ,1,0,1.,24.0,0.,24.0,4.,24.0,0.,24.0
1979-07-20 18:58:34.050 ,0,1,0.,24.0,0.,24.0,1.,24.0,0.,24.0
1979-07-20 18:58:58.050 ,0,0,0.,24.0,0.,24.0,2.,24.0,0.,24.0
1979-07-20 18:59:22.050 ,0,1,1.,24.0,0.,24.0,2.,24.0,0.,24.0
1979-07-20 18:59:46.050 ,0,0,0.,24.0,0.,24.0,4.,24.0,0.,24.0
1979-07-20 19:00:10.050 ,1,1,0.,24.0,0.,24.0,2.,24.0,0.,24.0
1979-07-20 19:00:34.050 ,1,0,0.,24.0,0.,24.0,2.,24.0,0.,24.0
1979-07-20 19:00:58.050 ,2,1,0.,24.0,0.,24.0,3.,24.0,0.,24.0
1979-07-20 19:01:22.050 ,2,0,0.,24.0,0.,24.0,3.,24.0,0.,24.0
1979-07-20 19:02:34.050 ,0,0,1.,24.0,0.,24.0,5.,24.0,0.,24.0
1979-07-20 19:02:58.050 ,0,0,0.,24.0,0.,24.0,4.,24.0,0.,24.0
1979-07-20 19:03:22.050 ,5,1,0.,24.0,1.,24.0,2.,24.0,0.,24.0
1979-07-20 19:03:46.050 ,5,0,0.,24.0,0.,24.0,1.,24.0,0.,24.0
1979-07-20 19:04:10.050 ,6,1,0.,24.0,0.,24.0,3.,24.0,0.,24.0
1979-07-20 19:04:34.050 ,6,0,0.,24.0,0.,24.0,4.,24.0,0.,24.0
1979-07-20 19:04:58.050 ,7,1,10.,24.0,0.,24.0,4.,24.0,0.,24.0
1979-07-20 19:05:22.050 ,7,0,31.,24.0,0.,24.0,2.,24.0,0.,24.0
1979-07-20 19:05:46.050 ,7,1,32.,24.0,0.,24.0,2.,24.0,0.,24.0
1979-07-20 19:06:10.050 ,7,0,26.,24.0,0.,24.0,2.,24.0,0.,24.0
1979-07-20 19:06:34.050 ,6,1,12.,24.0,0.,24.0,1.,24.0,0.,24.0
1979-07-20 19:06:58.050 ,6,0,0.,24.0,0.,24.0,8.,24.0,0.,24.0
1979-07-20 19:07:22.050 ,5,1,0.,24.0,0.,24.0,3.,24.0,0.,24.0
1979-07-20 19:07:46.050 ,5,0,0.,24.0,0.,24.0,6.,24.0,0.,24.0
1979-07-20 19:08:10.050 ,4,1,0.,24.0,0.,24.0,4.,24.0,0.,24.0
1979-07-20 19:08:34.050 ,4,0,0.,24.0,0.,24.0,1.,24.0,0.,24.0
1979-07-20 19:08:58.050 ,3,1,1.,24.0,0.,24.0,4.,24.0,0.,24.0
1979-07-20 19:09:22.050 ,3,0,0.,24.0,1.,24.0,3.,24.0,0.,24.0
1979-07-20 19:09:46.050 ,2,1,0.,24.0,0.,24.0,6.,24.0,0.,24.0
1979-07-20 19:10:10.050 ,2,0,1.,24.0,1.,24.0,3.,24.0,0.,24.0
1979-07-20 19:10:34.050 ,1,1,0.,24.0,0.,24.0,1.,24.0,0.,24.0
1979-07-20 19:10:58.050 ,1,0,0.,24.0,0.,24.0,6.,24.0,0.,24.0
1979-07-20 19:11:22.050 ,0,1,2.,24.0,0.,24.0,3.,24.0,0.,24.0
1979-07-20 19:11:46.050 ,0,0,0.,24.0,0.,24.0,2.,24.0,0.,24.0
1979-07-20 19:12:10.050 ,0,1,0.,24.0,1.,24.0,3.,24.0,0.,24.0
1979-07-20 19:12:34.050 ,0,0,0.,24.0,0.,24.0,2.,24.0,0.,24.0
1979-07-20 19:12:58.050 ,0,0,0.,24.0,0.,24.0,3.,24.0,0.,24.0
1979-07-20 19:13:22.050 ,0,0,0.,24.0,0.,24.0,3.,24.0,0.,24.0
1979-07-20 19:13:46.050 ,2,1,0.,24.0,0.,24.0,3.,24.0,0.,24.0
1979-07-20 19:14:10.050 ,2,0,0.,24.0,0.,24.0,3.,24.0,0.,24.0
1979-07-20 19:14:34.050 ,3,1,0.,24.0,0.,24.0,3.,24.0,0.,24.0
1979-07-20 19:14:58.050 ,3,0,1.,24.0,0.,24.0,5.,24.0,0.,24.0
1979-07-20 19:15:22.050 ,4,1,1.,24.0,0.,24.0,3.,24.0,0.,24.0
1979-07-20 19:15:46.050 ,4,0,0.,24.0,0.,24.0,4.,24.0,0.,24.0
1979-07-20 19:16:10.050 ,5,1,0.,24.0,1.,24.0,2.,24.0,0.,24.0
1979-07-20 19:16:34.050 ,5,0,0.,24.0,0.,24.0,2.,24.0,0.,24.0
1979-07-20 19:16:58.050 ,6,1,1.,24.0,0.,24.0,5.,24.0,0.,24.0
1979-07-20 19:17:22.050 ,6,0,0.,24.0,0.,24.0,2.,24.0,0.,24.0
1979-07-20 19:17:46.050 ,7,1,,0,,0,,0,,0
1979-07-20 19:18:10.050 ,7,0,39.,24.0,0.,24.0,2.,24.0,0.,24.0
1979-07-20 19:18:34.050 ,7,1,31.,24.0,0.,24.0,0.,24.0,0.,24.0
1979-07-20 19:18:58.050 ,7,0,32.,24.0,0.,24.0,1.,24.0,0.,24.0
1979-07-20 19:19:22.050 ,6,1,28.,24.0,0.,24.0,2.,24.0,0.,24.0
1979-07-20 19:19:46.050 ,6,0,0.,24.0,0.,24.0,1.,24.0,0.,24.0
1979-07-20 19:20:10.050 ,5,1,0.,24.0,0.,24.0,0.,24.0,0.,24.0
1979-07-20 19:20:58.050 ,0,0,0.,24.0,0.,24.0,1.,24.0,0.,24.0
1979-07-20 19:21:22.050 ,0,0,0.,24.0,0.,24.0,4.,24.0,0.,24.0
1979-07-20 19:21:46.050 ,3,1,0.,24.0,0.,24.0,0.,24.0,0.,24.0
1979-07-20 19:22:10.050 ,3,0,1.,24.0,0.,24.0,0.,24.0,0.,24.0
1979-07-20 19:22:34.050 ,2,1,2.,24.0,0.,24.0,0.,24.0,0.,24.0
1979-07-20 19:22:58.050 ,2,0,1.,24.0,0.,24.0,0.,24.0,0.,24.0
1979-07-20 19:23:22.050 ,1,1,1.,24.0,0.,24.0,1.,24.0,0.,24.0
1979-07-20 19:23:46.050 ,1,0,0.,24.0,0.,24.0,1.,24.0,0.,24.0
1979-07-20 19:24:10.050 ,0,1,0.,24.0,0.,24.0,0.,24.0,0.,24.0
1979-07-20 19:24:34.050 ,0,0,0.,24.0,0.,24.0,2.,24.0,0.,24.0
1979-07-20 19:24:58.050 ,0,1,0.,24.0,0.,24.0,1.,24.0,0.,24.0
1979-07-20 19:25:22.050 ,0,0,0.,24.0,0.,24.0,1.,24.0,0.,24.0
1979-07-20 19:25:46.050 ,1,1,0.,24.0,0.,24.0,0.,24.0,0.,24.0
1979-07-20 19:26:10.050 ,1,0,0.,24.0,0.,24.0,0.,24.0,0.,24.0
1979-07-20 19:26:34.050 ,2,1,0.,24.0,0.,24.0,0.,24.0,0.,24.0
1979-07-20 19:26:58.050 ,2,0,1.,24.0,0.,24.0,0.,24.0,0.,24.0
1979-07-20 19:27:22.050 ,3,1,0.,24.0,0.,24.0,0.,24.0,0.,24.0
1979-07-20 19:27:46.050 ,3,0,0.,24.0,0.,24.0,0.,24.0,0.,24.0
1979-07-20 19:28:10.050 ,4,1,0.,24.0,1.,24.0,0.,24.0,0.,24.0
1979-07-20 19:28:34.050 ,4,0,0.,24.0,0.,24.0,0.,24.0,0.,24.0
1979-07-20 19:28:58.050 ,5,1,0.,24.0,0.,24.0,0.,24.0,0.,24.0
1979-07-20 19:29:22.050 ,5,0,0.,24.0,0.,24.0,0.,24.0,0.,24.0
1979-07-20 19:29:46.050 ,6,1,0.,24.0,0.,24.0,0.,24.0,0.,24.0
1979-07-20 19:30:10.050 ,6,0,0.,24.0,1.,24.0,0.,24.0,0.,24.0
1979-07-20 19:30:34.050 ,7,0,8.,24.0,0.,24.0,0.,24.0,0.,24.0
1979-07-20 19:30:58.050 ,7,0,36.,24.0,0.,24.0,0.,24.0,0.,24.0
1979-07-20 19:31:22.050 ,5,1,11.,24.0,0.,24.0,0.,24.0,0.,24.0
1979-07-20 19:31:46.050 ,1,1,0.,24.0,0.,24.0,0.,24.0,0.,24.0
1979-07-20 19:32:10.050 ,2,1,0.,24.0,0.,24.0,0.,24.0,0.,24.0
1979-07-20 19:32:34.050 ,6,1,0.,24.0,0.,24.0,1.,24.0,0.,24.0
1979-07-20 19:32:58.050 ,5,1,20.,24.0,0.,24.0,0.,24.0,0.,24.0
1979-07-20 19:33:22.050 ,1,1,0.,24.0,0.,24.0,0.,24.0,0.,24.0
1979-07-20 19:34:34.050 ,0,0,22.,24.0,0.,24.0,0.,24.0,0.,24.0
1979-07-20 19:34:58.050 ,1,1,0.,24.0,0.,24.0,1.,24.0,0.,24.0
1979-07-20 19:35:22.050 ,2,1,1.,24.0,0.,24.0,0.,24.0,0.,24.0
1979-07-20 19:35:46.050 ,6,1,0.,24.0,0.,24.0,2.,24.0,0.,24.0
1979-07-20 19:36:10.050 ,5,1,12.,24.0,0.,24.0,1.,24.0,0.,24.0
1979-07-20 19:36:34.050 ,1,1,0.,24.0,0.,24.0,1.,24.0,0.,24.0
1979-07-20 19:36:58.050 ,2,1,0.,24.0,2.,24.0,0.,24.0,0.,24.0
1979-07-20 19:37:22.050 ,6,1,0.,24.0,0.,24.0,0.,24.0,0.,24.0
1979-07-20 19:37:46.050 ,5,1,15.,24.0,0.,24.0,0.,24.0,0.,24.0
1979-07-20 19:38:10.050 ,1,1,1.,24.0,0.,24.0,2.,24.0,0.,24.0
1979-07-20 19:38:34.050 ,2,1,0.,24.0,1.,24.0,0.,24.0,0.,24.0
1979-07-20 19:38:58.050 ,6,1,0.,24.0,2.,24.0,2.,24.0,0.,24.0
1979-07-20 19:39:22.050 ,5,1,22.,24.0,0.,24.0,0.,24.0,0.,24.0
1979-07-20 19:39:46.050 ,1,1,0.,24.0,0.,24.0,1.,24.0,0.,24.0
1979-07-20 19:40:10.050 ,2,1,2.,24.0,0.,24.0,1.,24.0,0.,24.0
1979-07-20 19:40:34.050 ,6,1,0.,24.0,0.,24.0,0.,24.0,0.,24.0
1979-07-20 19:40:58.050 ,5,1,20.,24.0,0.,24.0,3.,24.0,0.,24.0
1979-07-20 19:41:22.050 ,1,1,2.,24.0,0.,24.0,1.,24.0,0.,24.0
1979-07-20 19:41:46.050 ,0,0,0.,24.0,0.,24.0,1.,24.0,0.,24.0
1979-07-20 19:42:10.050 ,0,0,0.,24.0,0.,24.0,1.,24.0,0.,24.0
1979-07-20 19:42:34.050 ,5,1,21.,24.0,1.,24.0,0.,24.0,0.,24.0
1979-07-20 19:42:58.050 ,5,0,0.,24.0,1.,24.0,0.,24.0,0.,24.0
1979-07-20 19:43:22.050 ,4,1,0.,24.0,0.,24.0,0.,24.0,0.,24.0
1979-07-20 19:43:46.050 ,4,0,0.,24.0,1.,24.0,0.,24.0,0.,24.0
1979-07-20 19:44:10.050 ,3,1,0.,24.0,0.,24.0,1.,24.0,0.,24.0
1979-07-20 19:44:34.050 ,3,0,0.,24.0,0.,24.0,0.,24.0,0.,24.0
1979-07-20 19:44:58.050 ,2,1,0.,24.0,0.,24.0,1.,24.0,0.,24.0
1979-07-20 19:45:22.050 ,2,0,0.,24.0,0.,24.0,0.,24.0,0.,24.0
1979-07-20 19:45:46.050 ,1,1,0.,24.0,0.,24.0,0.,24.0,0.,24.0
1979-07-20 19:46:10.050 ,1,0,0.,24.0,0.,24.0,0.,24.0,0.,24.0
1979-07-20 19:46:34.050 ,0,1,0.,24.0,0.,24.0,0.,24.0,0.,24.0
1979-07-20 19:46:58.050 ,0,0,1.,24.0,0.,24.0,0.,24.0,0.,24.0
1979-07-20 19:47:22.050 ,0,1,0.,24.0,1.,24.0,0.,24.0,0.,24.0
1979-07-20 19:47:46.050 ,0,0,1.,24.0,0.,24.0,0.,24.0,0.,24.0
1979-07-20 19:48:10.050 ,1,1,1.,24.0,0.,24.0,0.,24.0,0.,24.0
1979-07-20 19:48:34.050 ,1,0,0.,24.0,0.,24.0,0.,24.0,0.,24.0
1979-07-20 19:48:58.050 ,2,1,1.,24.0,0.,24.0,0.,24.0,0.,24.0
1979-07-20 19:49:22.050 ,2,0,0.,24.0,0.,24.0,0.,24.0,0.,24.0
1979-07-20 19:49:46.050 ,3,1,0.,24.0,2.,24.0,1.,24.0,0.,24.0
1979-07-20 19:50:10.050 ,3,0,0.,24.0,0.,24.0,0.,24.0,0.,24.0
1979-07-20 19:50:34.050 ,4,1,1.,24.0,1.,24.0,1.,24.0,0.,24.0
1979-07-20 19:50:58.050 ,4,0,0.,24.0,0.,24.0,0.,24.0,0.,24.0
1979-07-20 19:51:22.050 ,5,1,0.,24.0,0.,24.0,0.,24.0,0.,24.0
1979-07-20 19:51:46.050 ,5,0,0.,24.0,0.,24.0,0.,24.0,0.,24.0
1979-07-20 19:52:10.050 ,6,1,0.,24.0,0.,24.0,0.,24.0,0.,24.0
1979-07-20 19:52:34.050 ,6,0,0.,24.0,1.,24.0,0.,24.0,0.,24.0
1979-07-20 19:52:58.050 ,7,1,7.,24.0,0.,24.0,0.,24.0,0.,24.0
1979-07-20 19:53:22.050 ,7,0,29.,24.0,0.,24.0,0.,24.0,0.,24.0
1979-07-20 19:53:46.050 ,7,1,37.,24.0,0.,24.0,0.,24.0,0.,24.0
1979-07-20 19:54:10.050 ,7,0,41.,24.0,0.,24.0,0.,24.0,0.,24.0
1979-07-20 19:54:34.050 ,6,1,22.,24.0,0.,24.0,0.,24.0,0.,24.0
1979-07-20 19:54:58.050 ,6,0,0.,24.0,0.,24.0,0.,24.0,0.,24.0
1979-07-20 19:55:22.050 ,5,1,2.,24.0,0.,24.0,1.,24.0,0.,24.0
1979-07-20 19:55:46.050 ,5,0,0.,24.0,0.,24.0,0.,24.0,0.,24.0
1979-07-20 19:56:10.050 ,4,1,0.,24.0,0.,24.0,0.,24.0,0.,24.0
1979-07-20 19:56:34.050 ,4,0,1.,24.0,0.,24.0,0.,24.0,0.,24.0
1979-07-20 19:56:58.050 ,3,1,0.,24.0,0.,24.0,0.,24.0,0.,24.0
1979-07-20 19:57:22.050 ,3,0,1.,24.0,0.,24.0,0.,24.0,0.,24.0
1979-07-20 19:57:46.050 ,2,1,0.,24.0,0.,24.0,0.,24.0,0.,24.0
1979-07-20 19:58:10.050 ,2,0,0.,24.0,0.,24.0,1.,24.0,0.,24.0
1979-07-20 19:58:34.050 ,1,1,1.,24.0,0.,24.0,0.,24.0,0.,24.0
1979-07-20 19:58:58.050 ,1,0,0.,24.0,0.,24.0,0.,24.0,0.,24.0
1979-07-20 19:59:22.050 ,0,1,1.,24.0,0.,24.0,0.,24.0,0.,24.0
1979-07-20 19:59:46.050 ,0,0,1.,24.0,0.,24.0,0.,24.0,0.,24.0
1979-07-20 20:00:10.050 ,0,1,0.,24.0,1.,24.0,0.,24.0,0.,24.0
1979-07-20 20:00:34.050 ,0,0,1.,24.0,1.,24.0,1.,24.0,0.,24.0
1979-07-20 20:00:58.050 ,1,1,1.,24.0,0.,24.0,0.,24.0,0.,24.0
1979-07-20 20:01:22.050 ,1,0,1.,24.0,0.,24.0,0.,24.0,0.,24.0
1979-07-20 20:01:46.050 ,2,1,0.,24.0,0.,24.0,0.,24.0,0.,24.0
1979-07-20 20:02:10.050 ,2,0,0.,24.0,0.,24.0,0.,24.0,0.,24.0
1979-07-20 20:02:34.050 ,3,1,0.,24.0,0.,24.0,0.,24.0,0.,24.0
1979-07-20 20:02:58.050 ,3,0,0.,24.0,0.,24.0,0.,24.0,0.,24.0
1979-07-20 20:03:22.050 ,0,0,0.,24.0,0.,24.0,0.,24.0,0.,24.0
1979-07-20 20:03:46.050 ,0,0,0.,24.0,0.,24.0,1.,24.0,0.,24.0
1979-07-20 20:04:10.050 ,5,1,0.,24.0,0.,24.0,0.,24.0,0.,24.0
1979-07-20 20:04:34.050 ,5,0,2.,24.0,0.,24.0,0.,24.0,0.,24.0
1979-07-20 20:04:58.050 ,6,1,0.,24.0,0.,24.0,0.,24.0,0.,24.0
1979-07-20 20:05:22.050 ,6,0,1.,24.0,0.,24.0,0.,24.0,0.,24.0
1979-07-20 20:05:46.050 ,7,1,5.,24.0,0.,24.0,1.,24.0,0.,24.0
1979-07-20 20:06:10.050 ,7,0,37.,24.0,0.,24.0,0.,24.0,0.,24.0
1979-07-20 20:06:34.050 ,7,1,51.,24.0,0.,24.0,1.,24.0,0.,24.0
1979-07-20 20:06:58.050 ,7,0,27.,24.0,0.,24.0,0.,24.0,0.,24.0
1979-07-20 20:07:22.050 ,6,1,30.,24.0,0.,24.0,0.,24.0,0.,24.0
1979-07-20 20:07:46.050 ,6,0,0.,24.0,1.,24.0,0.,24.0,0.,24.0
1979-07-20 20:08:10.050 ,5,1,0.,24.0,1.,24.0,1.,24.0,0.,24.0
1979-07-20 20:08:34.050 ,5,0,1.,24.0,0.,24.0,0.,24.0,0.,24.0
1979-07-20 20:08:58.050 ,4,1,0.,24.0,0.,24.0,0.,24.0,0.,24.0
1979-07-20 20:09:22.050 ,4,0,0.,24.0,1.,24.0,0.,24.0,0.,24.0
1979-07-20 20:09:46.050 ,3,1,0.,24.0,0.,24.0,0.,24.0,0.,24.0
1979-07-20 20:10:10.050 ,3,0,0.,24.0,0.,24.0,0.,24.0,0.,24.0
1979-07-20 20:10:34.050 ,2,1,0.,24.0,0.,24.0,0.,24.0,0.,24.0
1979-07-20 20:10:58.050 ,2,0,0.,24.0,0.,24.0,1.,24.0,0.,24.0
1979-07-20 20:11:22.050 ,1,1,0.,24.0,0.,24.0,0.,24.0,0.,24.0
1979-07-20 20:11:46.050 ,1,0,0.,24.0,0.,24.0,2.,24.0,0.,24.0
1979-07-20 20:12:10.050 ,0,1,0.,24.0,0.,24.0,0.,24.0,0.,24.0
1979-07-20 20:12:34.050 ,0,0,0.,24.0,0.,24.0,1.,24.0,0.,24.0
1979-07-20 20:12:58.050 ,0,1,0.,24.0,0.,24.0,1.,24.0,0.,24.0
1979-07-20 20:13:22.050 ,0,0,0.,24.0,0.,24.0,1.,24.0,0.,24.0
1979-07-20 20:13:46.050 ,1,1,0.,24.0,0.,24.0,0.,24.0,0.,24.0
1979-07-20 20:14:10.050 ,1,0,0.,24.0,0.,24.0,0.,24.0,0.,24.0
1979-07-20 20:14:34.050 ,2,1,1.,24.0,0.,24.0,0.,24.0,0.,24.0
1979-07-20 20:14:58.050 ,2,0,0.,24.0,0.,24.0,0.,24.0,0.,24.0
1979-07-20 20:15:22.050 ,3,1,0.,24.0,0.,24.0,0.,24.0,0.,24.0
1979-07-20 20:15:46.050 ,3,0,0.,24.0,0.,24.0,0.,24.0,0.,24.0
1979-07-20 20:16:10.050 ,4,1,1.,24.0,0.,24.0,0.,24.0,0.,24.0
1979-07-20 20:16:34.050 ,4,0,1.,24.0,0.,24.0,0.,24.0,0.,24.0
1979-07-20 20:16:58.050 ,5,1,0.,24.0,0.,24.0,0.,24.0,0.,24.0
1979-07-20 20:17:22.050 ,5,0,2.,24.0,0.,24.0,0.,24.0,0.,24.0
1979-07-20 20:17:46.050 ,6,1,0.,24.0,0.,24.0,0.,24.0,0.,24.0
1979-07-20 20:18:10.050 ,6,0,0.,24.0,0.,24.0,0.,24.0,0.,24.0
1979-07-20 20:18:34.050 ,7,0,6.,24.0,1.,24.0,0.,24.0,0.,24.0
1979-07-20 20:18:58.050 ,7,0,32.,24.0,0.,24.0,0.,24.0,0.,24.0
1979-07-20 20:19:22.050 ,5,1,18.,24.0,0.,24.0,0.,24.0,0.,24.0
1979-07-20 20:19:46.050 ,1,1,0.,24.0,0.,24.0,0.,24.0,0.,24.0
1979-07-20 20:20:10.050 ,2,1,0.,24.0,0.,24.0,0.,24.0,0.,24.0
1979-07-20 20:20:34.050 ,0,0,,0,,0,,0,,0
1979-07-20 20:21:02.250 ,0,0,17.,24.0,0.,24.0,1.,24.0,0.,24.0
1979-07-20 20:21:22.050 ,1,1,0.,24.0,0.,24.0,1.,24.0,0.,24.0
1979-07-20 20:21:46.050 ,2,1,0.,24.0,1.,24.0,1.,24.0,0.,24.0
1979-07-20 20:22:10.050 ,6,1,1.,24.0,0.,24.0,0.,24.0,0.,24.0
1979-07-20 20:22:34.050 ,5,1,10.,24.0,0.,24.0,0.,24.0,0.,24.0
1979-07-20 20:22:58.050 ,1,1,0.,24.0,0.,24.0,0.,24.0,0.,24.0
1979-07-20 20:23:22.050 ,2,1,0.,24.0,0.,24.0,0.,24.0,0.,24.0
1979-07-20 20:23:46.050 ,6,1,0.,24.0,0.,24.0,0.,24.0,0.,24.0
1979-07-20 20:24:10.050 ,0,0,18.,24.0,0.,24.0,0.,24.0,0.,24.0
1979-07-20 20:24:34.050 ,0,0,0.,24.0,0.,24.0,0.,24.0,0.,24.0
1979-07-20 20:24:58.050 ,2,1,0.,24.0,0.,24.0,0.,24.0,0.,24.0
1979-07-20 20:25:22.050 ,6,1,1.,24.0,0.,24.0,0.,24.0,0.,24.0
1979-07-20 20:25:46.050 ,5,1,11.,24.0,0.,24.0,2.,24.0,0.,24.0
1979-07-20 20:26:10.050 ,1,1,0.,24.0,0.,24.0,0.,24.0,0.,24.0
1979-07-20 20:26:34.050 ,2,1,0.,24.0,0.,24.0,0.,24.0,0.,24.0
1979-07-20 20:26:58.050 ,6,1,0.,24.0,0.,24.0,0.,24.0,0.,24.0
1979-07-20 20:27:22.050 ,5,1,16.,24.0,0.,24.0,1.,24.0,0.,24.0
1979-07-20 20:27:46.050 ,1,1,1.,24.0,0.,24.0,1.,24.0,0.,24.0
1979-07-20 20:28:10.050 ,2,1,0.,24.0,0.,24.0,0.,24.0,0.,24.0
1979-07-20 20:28:34.050 ,6,1,0.,24.0,0.,24.0,0.,24.0,0.,24.0
1979-07-20 20:28:58.050 ,5,1,9.,24.0,0.,24.0,0.,24.0,0.,24.0
1979-07-20 20:29:22.050 ,1,1,0.,24.0,0.,24.0,1.,24.0,0.,24.0
1979-07-20 20:29:46.050 ,0,0,,0,,0,,0,,0
1979-07-20 20:30:10.050 ,0,0,0.,24.0,0.,24.0,2.,24.0,0.,24.0
1979-07-20 20:30:34.050 ,5,1,13.,24.0,0.,24.0,0.,24.0,0.,24.0
1979-07-20 20:30:58.050 ,5,0,2.,24.0,1.,24.0,0.,24.0,0.,24.0
1979-07-20 20:31:22.050 ,4,1,0.,24.0,0.,24.0,0.,24.0,0.,24.0
1979-07-20 20:31:46.050 ,4,0,0.,24.0,0.,24.0,0.,24.0,0.,24.0
1979-07-20 20:32:10.050 ,3,1,0.,24.0,0.,24.0,0.,24.0,0.,24.0
1979-07-20 20:32:34.050 ,3,0,0.,24.0,0.,24.0,0.,24.0,0.,24.0
1979-07-20 20:32:58.050 ,2,1,0.,24.0,0.,24.0,0.,24.0,0.,24.0
1979-07-20 20:33:22.050 ,2,0,0.,24.0,0.,24.0,2.,24.0,0.,24.0
1979-07-20 20:34:34.050 ,0,0,0.,24.0,0.,24.0,0.,24.0,0.,24.0
1979-07-20 20:34:58.050 ,0,0,0.,24.0,0.,24.0,0.,24.0,0.,24.0
1979-07-20 20:35:22.050 ,0,1,0.,24.0,0.,24.0,0.,24.0,0.,24.0
1979-07-20 20:35:46.050 ,0,0,0.,24.0,0.,24.0,0.,24.0,0.,24.0
1979-07-20 20:36:10.050 ,1,1,0.,24.0,0.,24.0,1.,24.0,0.,24.0
1979-07-20 20:36:34.050 ,1,0,0.,24.0,0.,24.0,0.,24.0,0.,24.0
1979-07-20 20:36:58.050 ,2,1,0.,24.0,0.,24.0,0.,24.0,0.,24.0
1979-07-20 20:37:22.050 ,2,0,0.,24.0,0.,24.0,2.,24.0,0.,24.0
1979-07-20 20:37:46.050 ,3,1,1.,24.0,1.,24.0,0.,24.0,0.,24.0
1979-07-20 20:38:10.050 ,3,0,1.,24.0,0.,24.0,0.,24.0,0.,24.0
1979-07-20 20:38:34.050 ,4,1,0.,24.0,0.,24.0,0.,24.0,0.,24.0
1979-07-20 20:38:58.050 ,4,0,0.,24.0,0.,24.0,0.,24.0,0.,24.0
1979-07-20 20:39:22.050 ,5,1,1.,24.0,1.,24.0,0.,24.0,0.,24.0